Year,Month,Day,Hour,Minute,Value (Times are PST for temperature in C)
2017,09,16,00,00,12.80
2017,09,16,00,01,12.80
2017,09,16,00,02,12.80
2017,09,16,00,03,12.80
2017,09,16,00,04,12.70
2017,09,16,00,05,12.70
2017,09,16,00,06,12.70
2017,09,16,00,07,12.70
2017,09,16,00,08,12.70
2017,09,16,00,09,12.70
2017,09,16,00,10,12.70
2017,09,16,00,11,12.70
2017,09,16,00,12,12.70
2017,09,16,00,13,12.70
2017,09,16,00,14,12.70
2017,09,16,00,15,12.70
2017,09,16,00,16,12.70
2017,09,16,00,17,12.70
2017,09,16,00,18,12.70
2017,09,16,00,19,12.70
2017,09,16,00,20,12.70
2017,09,16,00,21,12.60
2017,09,16,00,22,12.60
2017,09,16,00,23,12.60
2017,09,16,00,24,12.60
2017,09,16,00,25,12.60
2017,09,16,00,26,12.60
2017,09,16,00,27,12.60
2017,09,16,00,28,12.60
2017,09,16,00,29,12.60
2017,09,16,00,30,12.60
2017,09,16,00,31,12.60
2017,09,16,00,32,12.70
2017,09,16,00,33,12.70
2017,09,16,00,34,12.70
2017,09,16,00,35,12.70
2017,09,16,00,36,12.70
2017,09,16,00,37,12.70
2017,09,16,00,38,12.70
2017,09,16,00,39,12.80
2017,09,16,00,40,12.80
2017,09,16,00,41,12.80
2017,09,16,00,42,12.80
2017,09,16,00,43,12.80
2017,09,16,00,44,12.80
2017,09,16,00,45,12.80
2017,09,16,00,46,12.80
2017,09,16,00,47,12.80
2017,09,16,00,48,12.80
2017,09,16,00,49,12.80
2017,09,16,00,50,12.80
2017,09,16,00,51,12.80
2017,09,16,00,52,12.80
2017,09,16,00,53,12.80
2017,09,16,00,54,12.80
2017,09,16,00,55,12.80
2017,09,16,00,56,12.80
2017,09,16,00,57,12.80
2017,09,16,00,58,12.80
2017,09,16,00,59,12.80
2017,09,16,01,00,12.80
2017,09,16,01,01,12.80
2017,09,16,01,02,12.70
2017,09,16,01,03,12.70
2017,09,16,01,04,12.70
2017,09,16,01,05,12.70
2017,09,16,01,06,12.70
2017,09,16,01,07,12.70
2017,09,16,01,08,12.70
2017,09,16,01,09,12.70
2017,09,16,01,10,12.70
2017,09,16,01,11,12.60
2017,09,16,01,12,12.60
2017,09,16,01,13,12.60
2017,09,16,01,14,12.60
2017,09,16,01,15,12.60
2017,09,16,01,16,12.60
2017,09,16,01,17,12.60
2017,09,16,01,18,12.60
2017,09,16,01,19,12.60
2017,09,16,01,20,12.50
2017,09,16,01,21,12.50
2017,09,16,01,22,12.50
2017,09,16,01,23,12.50
2017,09,16,01,24,12.50
2017,09,16,01,25,12.40
2017,09,16,01,26,12.40
2017,09,16,01,27,12.40
2017,09,16,01,28,12.40
2017,09,16,01,29,12.40
2017,09,16,01,30,12.40
2017,09,16,01,31,12.40
2017,09,16,01,32,12.50
2017,09,16,01,33,12.50
2017,09,16,01,34,12.50
2017,09,16,01,35,12.50
2017,09,16,01,36,12.50
2017,09,16,01,37,12.50
2017,09,16,01,38,12.50
2017,09,16,01,39,12.50
2017,09,16,01,40,12.50
2017,09,16,01,41,12.40
2017,09,16,01,42,12.40
2017,09,16,01,43,12.40
2017,09,16,01,44,12.40
2017,09,16,01,45,12.40
2017,09,16,01,46,12.50
2017,09,16,01,47,12.50
2017,09,16,01,48,12.50
2017,09,16,01,49,12.50
2017,09,16,01,50,12.40
2017,09,16,01,51,12.40
2017,09,16,01,52,12.40
2017,09,16,01,53,12.40
2017,09,16,01,54,12.40
2017,09,16,01,55,12.40
2017,09,16,01,56,12.40
2017,09,16,01,57,12.40
2017,09,16,01,58,12.40
2017,09,16,01,59,12.30
2017,09,16,02,00,12.30
2017,09,16,02,01,12.30
2017,09,16,02,02,12.30
2017,09,16,02,03,12.30
2017,09,16,02,04,12.30
2017,09,16,02,05,12.30
2017,09,16,02,06,12.30
2017,09,16,02,07,12.20
2017,09,16,02,08,12.20
2017,09,16,02,09,12.20
2017,09,16,02,10,12.20
2017,09,16,02,11,12.20
2017,09,16,02,12,12.10
2017,09,16,02,13,12.10
2017,09,16,02,14,12.10
2017,09,16,02,15,12.10
2017,09,16,02,16,12.10
2017,09,16,02,17,12.10
2017,09,16,02,18,12.00
2017,09,16,02,19,12.00
2017,09,16,02,20,12.00
2017,09,16,02,21,12.00
2017,09,16,02,22,11.90
2017,09,16,02,23,11.90
2017,09,16,02,24,11.90
2017,09,16,02,25,11.90
2017,09,16,02,26,11.90
2017,09,16,02,27,11.90
2017,09,16,02,28,11.90
2017,09,16,02,29,11.90
2017,09,16,02,30,11.80
2017,09,16,02,31,11.80
2017,09,16,02,32,11.80
2017,09,16,02,33,11.80
2017,09,16,02,34,11.80
2017,09,16,02,35,11.80
2017,09,16,02,36,11.70
2017,09,16,02,37,11.70
2017,09,16,02,38,11.70
2017,09,16,02,39,11.70
2017,09,16,02,40,11.70
2017,09,16,02,41,11.60
2017,09,16,02,42,11.60
2017,09,16,02,43,11.60
2017,09,16,02,44,11.60
2017,09,16,02,45,11.60
2017,09,16,02,46,11.60
2017,09,16,02,47,11.60
2017,09,16,02,48,11.60
2017,09,16,02,49,11.60
2017,09,16,02,50,11.60
2017,09,16,02,51,11.60
2017,09,16,02,52,11.50
2017,09,16,02,53,11.50
2017,09,16,02,54,11.40
2017,09,16,02,55,11.40
2017,09,16,02,56,11.40
2017,09,16,02,57,11.30
2017,09,16,02,58,11.30
2017,09,16,02,59,11.30
2017,09,16,03,00,11.30
2017,09,16,03,01,11.30
2017,09,16,03,02,11.30
2017,09,16,03,03,11.30
2017,09,16,03,04,11.30
2017,09,16,03,05,11.30
2017,09,16,03,06,11.20
2017,09,16,03,07,11.20
2017,09,16,03,08,11.20
2017,09,16,03,09,11.20
2017,09,16,03,10,11.10
2017,09,16,03,11,11.10
2017,09,16,03,12,11.10
2017,09,16,03,13,11.10
2017,09,16,03,14,11.10
2017,09,16,03,15,11.10
2017,09,16,03,16,11.10
2017,09,16,03,17,11.00
2017,09,16,03,18,11.00
2017,09,16,03,19,11.00
2017,09,16,03,20,11.00
2017,09,16,03,21,11.00
2017,09,16,03,22,10.90
2017,09,16,03,23,10.90
2017,09,16,03,24,10.90
2017,09,16,03,25,10.90
2017,09,16,03,26,10.90
2017,09,16,03,27,10.80
2017,09,16,03,28,10.80
2017,09,16,03,29,10.80
2017,09,16,03,30,10.80
2017,09,16,03,31,10.70
2017,09,16,03,32,10.70
2017,09,16,03,33,10.70
2017,09,16,03,34,10.70
2017,09,16,03,35,10.70
2017,09,16,03,36,10.60
2017,09,16,03,37,10.60
2017,09,16,03,38,10.60
2017,09,16,03,39,10.60
2017,09,16,03,40,10.50
2017,09,16,03,41,10.50
2017,09,16,03,42,10.50
2017,09,16,03,43,10.40
2017,09,16,03,44,10.40
2017,09,16,03,45,10.40
2017,09,16,03,46,10.40
2017,09,16,03,47,10.40
2017,09,16,03,48,10.40
2017,09,16,03,49,10.40
2017,09,16,03,50,10.40
2017,09,16,03,51,10.30
2017,09,16,03,52,10.30
2017,09,16,03,53,10.30
2017,09,16,03,54,10.30
2017,09,16,03,55,10.30
2017,09,16,03,56,10.30
2017,09,16,03,57,10.30
2017,09,16,03,58,10.20
2017,09,16,03,59,10.20
2017,09,16,04,00,10.20
2017,09,16,04,01,10.20
2017,09,16,04,02,10.20
2017,09,16,04,03,10.10
2017,09,16,04,04,10.10
2017,09,16,04,05,10.10
2017,09,16,04,06,10.10
2017,09,16,04,07,10.10
2017,09,16,04,08,10.10
2017,09,16,04,09,10.10
2017,09,16,04,10,10.10
2017,09,16,04,11,10.10
2017,09,16,04,12,10.10
2017,09,16,04,13,10.10
2017,09,16,04,14,10.10
2017,09,16,04,15,10.10
2017,09,16,04,16,10.10
2017,09,16,04,17,10.10
2017,09,16,04,18,10.10
2017,09,16,04,19,10.10
2017,09,16,04,20,10.10
2017,09,16,04,21,10.10
2017,09,16,04,22,10.00
2017,09,16,04,23,10.00
2017,09,16,04,24,10.00
2017,09,16,04,25,10.00
2017,09,16,04,26,10.00
2017,09,16,04,27,10.00
2017,09,16,04,28,10.00
2017,09,16,04,29,10.00
2017,09,16,04,30,9.90
2017,09,16,04,31,9.90
2017,09,16,04,32,9.90
2017,09,16,04,33,9.90
2017,09,16,04,34,9.90
2017,09,16,04,35,9.90
2017,09,16,04,36,9.90
2017,09,16,04,37,9.90
2017,09,16,04,38,9.90
2017,09,16,04,39,9.90
2017,09,16,04,40,9.90
2017,09,16,04,41,9.90
2017,09,16,04,42,9.90
2017,09,16,04,43,9.90
2017,09,16,04,44,9.90
2017,09,16,04,45,9.90
2017,09,16,04,46,9.90
2017,09,16,04,47,9.90
2017,09,16,04,48,9.90
2017,09,16,04,49,9.90
2017,09,16,04,50,9.90
2017,09,16,04,51,9.90
2017,09,16,04,52,9.90
2017,09,16,04,53,9.90
2017,09,16,04,54,9.80
2017,09,16,04,55,9.80
2017,09,16,04,56,9.80
2017,09,16,04,57,9.80
2017,09,16,04,58,9.80
2017,09,16,04,59,9.80
2017,09,16,05,00,9.80
2017,09,16,05,01,9.80
2017,09,16,05,02,9.80
2017,09,16,05,03,9.80
2017,09,16,05,04,9.80
2017,09,16,05,05,9.80
2017,09,16,05,06,9.80
2017,09,16,05,07,9.80
2017,09,16,05,08,9.80
2017,09,16,05,09,9.80
2017,09,16,05,10,9.80
2017,09,16,05,11,9.80
2017,09,16,05,12,9.80
2017,09,16,05,13,9.80
2017,09,16,05,14,9.80
2017,09,16,05,15,9.80
2017,09,16,05,16,9.80
2017,09,16,05,17,9.80
2017,09,16,05,18,9.80
2017,09,16,05,19,9.80
2017,09,16,05,20,9.80
2017,09,16,05,21,9.80
2017,09,16,05,22,9.80
2017,09,16,05,23,9.80
2017,09,16,05,24,9.80
2017,09,16,05,25,9.80
2017,09,16,05,26,9.80
2017,09,16,05,27,9.80
2017,09,16,05,28,9.80
2017,09,16,05,29,9.80
2017,09,16,05,30,9.80
2017,09,16,05,31,9.80
2017,09,16,05,32,9.80
2017,09,16,05,33,9.80
2017,09,16,05,34,9.80
2017,09,16,05,35,9.70
2017,09,16,05,36,9.70
2017,09,16,05,37,9.70
2017,09,16,05,38,9.70
2017,09,16,05,39,9.70
2017,09,16,05,40,9.70
2017,09,16,05,41,9.70
2017,09,16,05,42,9.70
2017,09,16,05,43,9.70
2017,09,16,05,44,9.70
2017,09,16,05,45,9.70
2017,09,16,05,46,9.70
2017,09,16,05,47,9.60
2017,09,16,05,48,9.60
2017,09,16,05,49,9.60
2017,09,16,05,50,9.60
2017,09,16,05,51,9.50
2017,09,16,05,52,9.50
2017,09,16,05,53,9.40
2017,09,16,05,54,9.40
2017,09,16,05,55,9.40
2017,09,16,05,56,9.40
2017,09,16,05,57,9.40
2017,09,16,05,58,9.40
2017,09,16,05,59,9.50
2017,09,16,06,00,9.50
2017,09,16,06,01,9.50
2017,09,16,06,02,9.50
2017,09,16,06,03,9.50
2017,09,16,06,04,9.50
2017,09,16,06,05,9.50
2017,09,16,06,06,9.50
2017,09,16,06,07,9.60
2017,09,16,06,08,9.60
2017,09,16,06,09,9.60
2017,09,16,06,10,9.60
2017,09,16,06,11,9.60
2017,09,16,06,12,9.60
2017,09,16,06,13,9.60
2017,09,16,06,14,9.70
2017,09,16,06,15,9.70
2017,09,16,06,16,9.70
2017,09,16,06,17,9.70
2017,09,16,06,18,9.70
2017,09,16,06,19,9.70
2017,09,16,06,20,9.70
2017,09,16,06,21,9.80
2017,09,16,06,22,9.80
2017,09,16,06,23,9.80
2017,09,16,06,24,9.80
2017,09,16,06,25,9.90
2017,09,16,06,26,9.90
2017,09,16,06,27,9.90
2017,09,16,06,28,9.90
2017,09,16,06,29,10.00
2017,09,16,06,30,10.00
2017,09,16,06,31,10.00
2017,09,16,06,32,10.10
2017,09,16,06,33,10.10
2017,09,16,06,34,10.10
2017,09,16,06,35,10.10
2017,09,16,06,36,10.10
2017,09,16,06,37,10.00
2017,09,16,06,38,10.00
2017,09,16,06,39,10.00
2017,09,16,06,40,10.00
2017,09,16,06,41,10.00
2017,09,16,06,42,9.90
2017,09,16,06,43,9.90
2017,09,16,06,44,9.90
2017,09,16,06,45,9.90
2017,09,16,06,46,9.90
2017,09,16,06,47,9.80
2017,09,16,06,48,9.80
2017,09,16,06,49,9.80
2017,09,16,06,50,9.80
2017,09,16,06,51,9.80
2017,09,16,06,52,9.80
2017,09,16,06,53,9.80
2017,09,16,06,54,9.80
2017,09,16,06,55,9.80
2017,09,16,06,56,9.80
2017,09,16,06,57,9.90
2017,09,16,06,58,9.90
2017,09,16,06,59,9.90
2017,09,16,07,00,9.90
2017,09,16,07,01,9.90
2017,09,16,07,02,10.00
2017,09,16,07,03,10.00
2017,09,16,07,04,10.10
2017,09,16,07,05,10.10
2017,09,16,07,06,10.10
2017,09,16,07,07,10.10
2017,09,16,07,08,10.10
2017,09,16,07,09,10.10
2017,09,16,07,10,10.20
2017,09,16,07,11,10.20
2017,09,16,07,12,10.20
2017,09,16,07,13,10.20
2017,09,16,07,14,10.30
2017,09,16,07,15,10.30
2017,09,16,07,16,10.30
2017,09,16,07,17,10.30
2017,09,16,07,18,10.40
2017,09,16,07,19,10.40
2017,09,16,07,20,10.40
2017,09,16,07,21,10.40
2017,09,16,07,22,10.50
2017,09,16,07,23,10.50
2017,09,16,07,24,10.50
2017,09,16,07,25,10.60
2017,09,16,07,26,10.60
2017,09,16,07,27,10.60
2017,09,16,07,28,10.60
2017,09,16,07,29,10.60
2017,09,16,07,30,10.60
2017,09,16,07,31,10.70
2017,09,16,07,32,10.70
2017,09,16,07,33,10.70
2017,09,16,07,34,10.70
2017,09,16,07,35,10.70
2017,09,16,07,36,10.70
2017,09,16,07,37,10.70
2017,09,16,07,38,10.80
2017,09,16,07,39,10.80
2017,09,16,07,40,10.80
2017,09,16,07,41,10.80
2017,09,16,07,42,10.80
2017,09,16,07,43,10.80
2017,09,16,07,44,10.70
2017,09,16,07,45,10.70
2017,09,16,07,46,10.70
2017,09,16,07,47,10.70
2017,09,16,07,48,10.70
2017,09,16,07,49,10.70
2017,09,16,07,50,10.70
2017,09,16,07,51,10.70
2017,09,16,07,52,10.70
2017,09,16,07,53,10.70
2017,09,16,07,54,10.80
2017,09,16,07,55,10.80
2017,09,16,07,56,10.80
2017,09,16,07,57,10.80
2017,09,16,07,58,10.80
2017,09,16,07,59,10.80
2017,09,16,08,00,10.80
2017,09,16,08,01,10.80
2017,09,16,08,02,10.80
2017,09,16,08,03,10.80
2017,09,16,08,04,10.90
2017,09,16,08,05,10.90
2017,09,16,08,06,11.00
2017,09,16,08,07,11.00
2017,09,16,08,08,11.10
2017,09,16,08,09,11.10
2017,09,16,08,10,11.10
2017,09,16,08,11,11.20
2017,09,16,08,12,11.20
2017,09,16,08,13,11.30
2017,09,16,08,14,11.30
2017,09,16,08,15,11.30
2017,09,16,08,16,11.30
2017,09,16,08,17,11.30
2017,09,16,08,18,11.40
2017,09,16,08,19,11.40
2017,09,16,08,20,11.40
2017,09,16,08,21,11.50
2017,09,16,08,22,11.50
2017,09,16,08,23,11.50
2017,09,16,08,24,11.60
2017,09,16,08,25,11.60
2017,09,16,08,26,11.60
2017,09,16,08,27,11.70
2017,09,16,08,28,11.70
2017,09,16,08,29,11.70
2017,09,16,08,30,11.80
2017,09,16,08,31,11.80
2017,09,16,08,32,11.80
2017,09,16,08,33,11.90
2017,09,16,08,34,11.90
2017,09,16,08,35,12.00
2017,09,16,08,36,12.00
2017,09,16,08,37,12.00
2017,09,16,08,38,12.00
2017,09,16,08,39,12.10
2017,09,16,08,40,12.10
2017,09,16,08,41,12.10
2017,09,16,08,42,12.10
2017,09,16,08,43,12.20
2017,09,16,08,44,12.20
2017,09,16,08,45,12.20
2017,09,16,08,46,12.20
2017,09,16,08,47,12.20
2017,09,16,08,48,12.30
2017,09,16,08,49,12.30
2017,09,16,08,50,12.30
2017,09,16,08,51,12.40
2017,09,16,08,52,12.40
2017,09,16,08,53,12.40
2017,09,16,08,54,12.40
2017,09,16,08,55,12.40
2017,09,16,08,56,12.50
2017,09,16,08,57,12.50
2017,09,16,08,58,12.50
2017,09,16,08,59,12.60
2017,09,16,09,00,12.60
2017,09,16,09,01,12.60
2017,09,16,09,02,12.70
2017,09,16,09,03,12.70
2017,09,16,09,04,12.70
2017,09,16,09,05,12.70
2017,09,16,09,06,12.80
2017,09,16,09,07,12.80
2017,09,16,09,08,12.80
2017,09,16,09,09,12.80
2017,09,16,09,10,12.90
2017,09,16,09,11,12.90
2017,09,16,09,12,12.90
2017,09,16,09,13,13.00
2017,09,16,09,14,13.00
2017,09,16,09,15,13.10
2017,09,16,09,16,13.10
2017,09,16,09,17,13.10
2017,09,16,09,18,13.10
2017,09,16,09,19,13.20
2017,09,16,09,20,13.20
2017,09,16,09,21,13.20
2017,09,16,09,22,13.20
2017,09,16,09,23,13.30
2017,09,16,09,24,13.30
2017,09,16,09,25,13.30
2017,09,16,09,26,13.40
2017,09,16,09,27,13.40
2017,09,16,09,28,13.50
2017,09,16,09,29,13.50
2017,09,16,09,30,13.60
2017,09,16,09,31,13.60
2017,09,16,09,32,13.70
2017,09,16,09,33,13.80
2017,09,16,09,34,13.80
2017,09,16,09,35,13.80
2017,09,16,09,36,13.90
2017,09,16,09,37,13.90
2017,09,16,09,38,14.00
2017,09,16,09,39,14.00
2017,09,16,09,40,14.10
2017,09,16,09,41,14.10
2017,09,16,09,42,14.20
2017,09,16,09,43,14.20
2017,09,16,09,44,14.30
2017,09,16,09,45,14.30
2017,09,16,09,46,14.40
2017,09,16,09,47,14.40
2017,09,16,09,48,14.40
2017,09,16,09,49,14.40
2017,09,16,09,50,14.40
2017,09,16,09,51,14.40
2017,09,16,09,52,14.50
2017,09,16,09,53,14.50
2017,09,16,09,54,14.60
2017,09,16,09,55,14.60
2017,09,16,09,56,14.60
2017,09,16,09,57,14.60
2017,09,16,09,58,14.60
2017,09,16,09,59,14.70
2017,09,16,10,00,14.70
2017,09,16,10,01,14.70
2017,09,16,10,02,14.70
2017,09,16,10,03,14.70
2017,09,16,10,04,14.70
2017,09,16,10,05,14.70
2017,09,16,10,06,14.70
2017,09,16,10,07,14.70
2017,09,16,10,08,14.70
2017,09,16,10,09,14.70
2017,09,16,10,10,14.70
2017,09,16,10,11,14.80
2017,09,16,10,12,14.80
2017,09,16,10,13,14.80
2017,09,16,10,14,14.90
2017,09,16,10,15,14.90
2017,09,16,10,16,15.00
2017,09,16,10,17,15.10
2017,09,16,10,18,15.10
2017,09,16,10,19,15.20
2017,09,16,10,20,15.30
2017,09,16,10,21,15.40
2017,09,16,10,22,15.50
2017,09,16,10,23,15.60
2017,09,16,10,24,15.60
2017,09,16,10,25,15.70
2017,09,16,10,26,15.80
2017,09,16,10,27,15.80
2017,09,16,10,28,15.80
2017,09,16,10,29,15.80
2017,09,16,10,30,15.90
2017,09,16,10,31,15.90
2017,09,16,10,32,16.00
2017,09,16,10,33,16.00
2017,09,16,10,34,16.00
2017,09,16,10,35,16.00
2017,09,16,10,36,16.00
2017,09,16,10,37,16.00
2017,09,16,10,38,16.10
2017,09,16,10,39,16.10
2017,09,16,10,40,16.10
2017,09,16,10,41,16.10
2017,09,16,10,42,16.10
2017,09,16,10,43,16.10
2017,09,16,10,44,16.10
2017,09,16,10,45,16.20
2017,09,16,10,46,16.20
2017,09,16,10,47,16.20
2017,09,16,10,48,16.20
2017,09,16,10,49,16.30
2017,09,16,10,50,16.30
2017,09,16,10,51,16.40
2017,09,16,10,52,16.50
2017,09,16,10,53,16.60
2017,09,16,10,54,16.60
2017,09,16,10,55,16.70
2017,09,16,10,56,16.70
2017,09,16,10,57,16.70
2017,09,16,10,58,16.80
2017,09,16,10,59,16.80
2017,09,16,11,00,16.90
2017,09,16,11,01,17.00
2017,09,16,11,02,17.10
2017,09,16,11,03,17.10
2017,09,16,11,04,17.20
2017,09,16,11,05,17.30
2017,09,16,11,06,17.40
2017,09,16,11,07,17.50
2017,09,16,11,08,17.60
2017,09,16,11,09,17.70
2017,09,16,11,10,17.70
2017,09,16,11,11,17.80
2017,09,16,11,12,17.90
2017,09,16,11,13,18.00
2017,09,16,11,14,18.00
2017,09,16,11,15,18.00
2017,09,16,11,16,18.10
2017,09,16,11,17,18.10
2017,09,16,11,18,18.10
2017,09,16,11,19,18.10
2017,09,16,11,20,18.00
2017,09,16,11,21,18.00
2017,09,16,11,22,18.00
2017,09,16,11,23,18.00
2017,09,16,11,24,18.00
2017,09,16,11,25,18.00
2017,09,16,11,26,18.00
2017,09,16,11,27,18.00
2017,09,16,11,28,18.00
2017,09,16,11,29,17.90
2017,09,16,11,30,17.80
2017,09,16,11,31,17.80
2017,09,16,11,32,17.70
2017,09,16,11,33,17.70
2017,09,16,11,34,17.70
2017,09,16,11,35,17.70
2017,09,16,11,36,17.70
2017,09,16,11,37,17.70
2017,09,16,11,38,17.80
2017,09,16,11,39,17.80
2017,09,16,11,40,17.80
2017,09,16,11,41,17.80
2017,09,16,11,42,17.80
2017,09,16,11,43,17.90
2017,09,16,11,44,17.90
2017,09,16,11,45,18.00
2017,09,16,11,46,18.00
2017,09,16,11,47,17.90
2017,09,16,11,48,17.90
2017,09,16,11,49,17.80
2017,09,16,11,50,17.80
2017,09,16,11,51,17.80
2017,09,16,11,52,17.80
2017,09,16,11,53,17.80
2017,09,16,11,54,17.80
2017,09,16,11,55,17.80
2017,09,16,11,56,17.80
2017,09,16,11,57,17.70
2017,09,16,11,58,17.70
2017,09,16,11,59,17.70
2017,09,16,12,00,17.70
2017,09,16,12,01,17.70
2017,09,16,12,02,17.70
2017,09,16,12,03,17.70
2017,09,16,12,04,17.80
2017,09,16,12,05,17.80
2017,09,16,12,06,17.80
2017,09,16,12,07,17.80
2017,09,16,12,08,17.80
2017,09,16,12,09,17.70
2017,09,16,12,10,17.70
2017,09,16,12,11,17.60
2017,09,16,12,12,17.60
2017,09,16,12,13,17.60
2017,09,16,12,14,17.70
2017,09,16,12,15,17.70
2017,09,16,12,16,17.80
2017,09,16,12,17,17.80
2017,09,16,12,18,17.80
2017,09,16,12,19,17.70
2017,09,16,12,20,17.70
2017,09,16,12,21,17.70
2017,09,16,12,22,17.70
2017,09,16,12,23,17.80
2017,09,16,12,24,17.80
2017,09,16,12,25,17.90
2017,09,16,12,26,17.90
2017,09,16,12,27,18.00
2017,09,16,12,28,18.00
2017,09,16,12,29,18.10
2017,09,16,12,30,18.10
2017,09,16,12,31,18.10
2017,09,16,12,32,18.20
2017,09,16,12,33,18.20
2017,09,16,12,34,18.20
2017,09,16,12,35,18.20
2017,09,16,12,36,18.20
2017,09,16,12,37,18.30
2017,09,16,12,38,18.30
2017,09,16,12,39,18.40
2017,09,16,12,40,18.40
2017,09,16,12,41,18.40
2017,09,16,12,42,18.40
2017,09,16,12,43,18.30
2017,09,16,12,44,18.30
2017,09,16,12,45,18.30
2017,09,16,12,46,18.30
2017,09,16,12,47,18.30
2017,09,16,12,48,18.30
2017,09,16,12,49,18.30
2017,09,16,12,50,18.30
2017,09,16,12,51,18.20
2017,09,16,12,52,18.20
2017,09,16,12,53,18.20
2017,09,16,12,54,18.20
2017,09,16,12,55,18.20
2017,09,16,12,56,18.20
2017,09,16,12,57,18.30
2017,09,16,12,58,18.30
2017,09,16,12,59,18.30
2017,09,16,13,00,18.30
2017,09,16,13,01,18.30
2017,09,16,13,02,18.40
2017,09,16,13,03,18.40
2017,09,16,13,04,18.40
2017,09,16,13,05,18.50
2017,09,16,13,06,18.50
2017,09,16,13,07,18.60
2017,09,16,13,08,18.60
2017,09,16,13,09,18.60
2017,09,16,13,10,18.60
2017,09,16,13,11,18.60
2017,09,16,13,12,18.60
2017,09,16,13,13,18.60
2017,09,16,13,14,18.60
2017,09,16,13,15,18.60
2017,09,16,13,16,18.60
2017,09,16,13,17,18.70
2017,09,16,13,18,18.70
2017,09,16,13,19,18.70
2017,09,16,13,20,18.70
2017,09,16,13,21,18.80
2017,09,16,13,22,18.80
2017,09,16,13,23,18.90
2017,09,16,13,24,19.00
2017,09,16,13,25,19.00
2017,09,16,13,26,19.00
2017,09,16,13,27,19.00
2017,09,16,13,28,19.00
2017,09,16,13,29,19.00
2017,09,16,13,30,19.10
2017,09,16,13,31,19.10
2017,09,16,13,32,19.10
2017,09,16,13,33,19.20
2017,09,16,13,34,19.20
2017,09,16,13,35,19.20
2017,09,16,13,36,19.30
2017,09,16,13,37,19.30
2017,09,16,13,38,19.40
2017,09,16,13,39,19.40
2017,09,16,13,40,19.50
2017,09,16,13,41,19.50
2017,09,16,13,42,19.40
2017,09,16,13,43,19.40
2017,09,16,13,44,19.40
2017,09,16,13,45,19.40
2017,09,16,13,46,19.40
2017,09,16,13,47,19.50
2017,09,16,13,48,19.50
2017,09,16,13,49,19.60
2017,09,16,13,50,19.60
2017,09,16,13,51,19.60
2017,09,16,13,52,19.60
2017,09,16,13,53,19.60
2017,09,16,13,54,19.70
2017,09,16,13,55,19.70
2017,09,16,13,56,19.70
2017,09,16,13,57,19.70
2017,09,16,13,58,19.70
2017,09,16,13,59,19.70
2017,09,16,14,00,19.70
2017,09,16,14,01,19.80
2017,09,16,14,02,19.80
2017,09,16,14,03,19.90
2017,09,16,14,04,19.90
2017,09,16,14,05,19.90
2017,09,16,14,06,19.90
2017,09,16,14,07,19.90
2017,09,16,14,08,19.90
2017,09,16,14,09,19.90
2017,09,16,14,10,20.00
2017,09,16,14,11,20.00
2017,09,16,14,12,20.10
2017,09,16,14,13,20.10
2017,09,16,14,14,20.10
2017,09,16,14,15,20.10
2017,09,16,14,16,20.00
2017,09,16,14,17,20.00
2017,09,16,14,18,19.90
2017,09,16,14,19,19.90
2017,09,16,14,20,19.80
2017,09,16,14,21,19.80
2017,09,16,14,22,19.80
2017,09,16,14,23,19.80
2017,09,16,14,24,19.80
2017,09,16,14,25,19.80
2017,09,16,14,26,19.80
2017,09,16,14,27,19.80
2017,09,16,14,28,19.80
2017,09,16,14,29,19.80
2017,09,16,14,30,19.80
2017,09,16,14,31,19.90
2017,09,16,14,32,19.90
2017,09,16,14,33,20.10
2017,09,16,14,34,20.10
2017,09,16,14,35,20.20
2017,09,16,14,36,20.30
2017,09,16,14,37,20.40
2017,09,16,14,38,20.40
2017,09,16,14,39,20.50
2017,09,16,14,40,20.50
2017,09,16,14,41,20.50
2017,09,16,14,42,20.50
2017,09,16,14,43,20.40
2017,09,16,14,44,20.40
2017,09,16,14,45,20.40
2017,09,16,14,46,20.40
2017,09,16,14,47,20.40
2017,09,16,14,48,20.40
2017,09,16,14,49,20.50
2017,09,16,14,50,20.50
2017,09,16,14,51,20.60
2017,09,16,14,52,20.60
2017,09,16,14,53,20.60
2017,09,16,14,54,20.60
2017,09,16,14,55,20.50
2017,09,16,14,56,20.50
2017,09,16,14,57,20.40
2017,09,16,14,58,20.40
2017,09,16,14,59,20.40
2017,09,16,15,00,20.40
2017,09,16,15,01,20.40
2017,09,16,15,02,20.40
2017,09,16,15,03,20.40
2017,09,16,15,04,20.40
2017,09,16,15,05,20.50
2017,09,16,15,06,20.50
2017,09,16,15,07,20.50
2017,09,16,15,08,20.60
2017,09,16,15,09,20.60
2017,09,16,15,10,20.60
2017,09,16,15,11,20.70
2017,09,16,15,12,20.70
2017,09,16,15,13,20.70
2017,09,16,15,14,20.70
2017,09,16,15,15,20.70
2017,09,16,15,16,20.80
2017,09,16,15,17,20.80
2017,09,16,15,18,20.80
2017,09,16,15,19,20.80
2017,09,16,15,20,20.80
2017,09,16,15,21,20.80
2017,09,16,15,22,20.90
2017,09,16,15,23,20.90
2017,09,16,15,24,20.90
2017,09,16,15,25,20.90
2017,09,16,15,26,21.00
2017,09,16,15,27,21.00
2017,09,16,15,28,21.00
2017,09,16,15,29,21.00
2017,09,16,15,30,21.10
2017,09,16,15,31,21.10
2017,09,16,15,32,21.10
2017,09,16,15,33,21.20
2017,09,16,15,34,21.20
2017,09,16,15,35,21.20
2017,09,16,15,36,21.20
2017,09,16,15,37,21.20
2017,09,16,15,38,21.20
2017,09,16,15,39,21.30
2017,09,16,15,40,21.30
2017,09,16,15,41,21.20
2017,09,16,15,42,21.20
2017,09,16,15,43,21.20
2017,09,16,15,44,21.20
2017,09,16,15,45,21.20
2017,09,16,15,46,21.20
2017,09,16,15,47,21.20
2017,09,16,15,48,21.30
2017,09,16,15,49,21.30
2017,09,16,15,50,21.30
2017,09,16,15,51,21.40
2017,09,16,15,52,21.50
2017,09,16,15,53,21.50
2017,09,16,15,54,21.60
2017,09,16,15,55,21.60
2017,09,16,15,56,21.60
2017,09,16,15,57,21.60
2017,09,16,15,58,21.70
2017,09,16,15,59,21.70
2017,09,16,16,00,21.80
2017,09,16,16,01,21.80
2017,09,16,16,02,21.80
2017,09,16,16,03,21.90
2017,09,16,16,04,21.90
2017,09,16,16,05,21.90
2017,09,16,16,06,21.90
2017,09,16,16,07,21.90
2017,09,16,16,08,21.90
2017,09,16,16,09,21.90
2017,09,16,16,10,21.90
2017,09,16,16,11,21.90
2017,09,16,16,12,21.90
2017,09,16,16,13,21.90
2017,09,16,16,14,21.90
2017,09,16,16,15,21.90
2017,09,16,16,16,21.80
2017,09,16,16,17,21.80
2017,09,16,16,18,21.80
2017,09,16,16,19,21.80
2017,09,16,16,20,21.80
2017,09,16,16,21,21.80
2017,09,16,16,22,21.80
2017,09,16,16,23,21.80
2017,09,16,16,24,21.80
2017,09,16,16,25,21.80
2017,09,16,16,26,21.80
2017,09,16,16,27,21.80
2017,09,16,16,28,21.80
2017,09,16,16,29,21.80
2017,09,16,16,30,21.80
2017,09,16,16,31,21.80
2017,09,16,16,32,21.80
2017,09,16,16,33,21.90
2017,09,16,16,34,21.90
2017,09,16,16,35,21.90
2017,09,16,16,36,21.90
2017,09,16,16,37,21.90
2017,09,16,16,38,21.90
2017,09,16,16,39,22.00
2017,09,16,16,40,22.00
2017,09,16,16,41,22.10
2017,09,16,16,42,22.10
2017,09,16,16,43,22.10
2017,09,16,16,44,22.10
2017,09,16,16,45,22.20
2017,09,16,16,46,22.20
2017,09,16,16,47,22.20
2017,09,16,16,48,22.20
2017,09,16,16,49,22.20
2017,09,16,16,50,22.20
2017,09,16,16,51,22.20
2017,09,16,16,52,22.10
2017,09,16,16,53,22.10
2017,09,16,16,54,22.10
2017,09,16,16,55,22.00
2017,09,16,16,56,22.00
2017,09,16,16,57,21.90
2017,09,16,16,58,21.90
2017,09,16,16,59,21.90
2017,09,16,17,00,21.90
2017,09,16,17,01,21.80
2017,09,16,17,02,21.80
2017,09,16,17,03,21.80
2017,09,16,17,04,21.80
2017,09,16,17,05,21.80
2017,09,16,17,06,21.70
2017,09,16,17,07,21.70
2017,09,16,17,08,21.70
2017,09,16,17,09,21.70
2017,09,16,17,10,21.70
2017,09,16,17,11,21.80
2017,09,16,17,12,21.80
2017,09,16,17,13,21.80
2017,09,16,17,14,21.80
2017,09,16,17,15,21.80
2017,09,16,17,16,21.90
2017,09,16,17,17,21.90
2017,09,16,17,18,21.90
2017,09,16,17,19,21.90
2017,09,16,17,20,21.90
2017,09,16,17,21,21.90
2017,09,16,17,22,21.90
2017,09,16,17,23,21.90
2017,09,16,17,24,22.00
2017,09,16,17,25,22.00